Weather History for Red Wing, MN

Change the Weather History Date:

Thursday, May 24, 2012

  Actual Average Record
Temperature  
Mean Temperature 65 °F -  
Max Temperature 75 °F 67 °F 82 °F (2006)
Min Temperature 55 °F 46 °F 37 °F (2013)
Growing Degree Days 15 (Base 50)    
Moisture  
Dew Point 58 °F    
Average Humidity 82    
Maximum Humidity 100    
Minimum Humidity 44    
Precipitation  
Precipitation 0.97 in - - ()
Sea Level Pressure  
Sea Level Pressure 29.49 in    
Wind  
Wind Speed 7 mph (WSW)    
Max Wind Speed 25 mph    
Max Gust Speed 40 mph    
Visibility 9 miles    
Events Rain , Thunderstorm    
Averages and records for this station are not official NWS values.
T = Trace of Precipitation, MM = Missing Value Source: NWS Daily Summary

Daily Weather History Graph

Daily Weather History Graph

Search for Another Location

Airport:

Trip Planner

Search our weather history database for the weather conditions in past years. The results will help you decide how hot, cold, wet, or windy it might be!

Date:

Astronomy

May. 24, 2012 Rise Set
Actual Time 5:33 AM CDT 8:41 PM CDT
Civil Twilight 4:57 AM CDT 9:16 PM CDT
Nautical Twilight 4:12 AM CDT 10:01 PM CDT
Astronomical Twilight 3:18 AM CDT 10:56 PM CDT
Moon 8:34 AM CDT (5/24) 11:39 PM CDT (5/24)
Length of Visible Light 16h 18m
Length of Day
15h 08m
Waxing Crescent, 12% of the Moon is Illuminated
May 24
Waxing Crescent
May 28
First Quarter
Jun 4
Full
Jun 11
Last Quarter
Jun 19
New

Hourly Weather History & Observations

Time (CDT) Temp. Dew Point Humidity Pressure Visibility Wind Dir Wind Speed Gust Speed Precip Events Conditions
12:14 AM 75.2 °F 53.6 °F 47% 29.50 in 10.0 mi South 8.1 mph - N/A Rain Light Rain
12:29 AM 73.4 °F 53.6 °F 50% 29.50 in 10.0 mi South 8.1 mph - N/A   Scattered Clouds
1:00 AM 75.2 °F 51.8 °F 44% 29.50 in 10.0 mi SSE 10.4 mph - N/A   Scattered Clouds
1:21 AM 75.2 °F 51.8 °F 44% 29.50 in 10.0 mi SSE 9.2 mph 16.1 mph N/A   Scattered Clouds
1:41 AM 75.2 °F 51.8 °F 44% 29.50 in 10.0 mi SSE 10.4 mph - N/A   Scattered Clouds
1:56 AM 73.4 °F 51.8 °F 47% 29.50 in 10.0 mi SSE 9.2 mph - N/A   Clear
2:35 AM 73.4 °F 51.8 °F 47% 29.50 in 10.0 mi South 9.2 mph - N/A Thunderstorm Mostly Cloudy
2:55 AM 73.4 °F 53.6 °F 50% 29.51 in 10.0 mi South 6.9 mph - N/A   Overcast
3:15 AM 73.4 °F 55.4 °F 53% 29.53 in 10.0 mi WNW 16.1 mph 23.0 mph N/A   Overcast
3:35 AM 66.2 °F 60.8 °F 83% 29.52 in 10.0 mi NNW 4.6 mph - N/A Rain , Thunderstorm Light Thunderstorms and Rain
3:55 AM 66.2 °F 60.8 °F 83% 29.50 in 10.0 mi ESE 6.9 mph - N/A   Overcast
4:15 AM 66.2 °F 60.8 °F 83% 29.51 in 10.0 mi East 4.6 mph - N/A   Mostly Cloudy
4:34 AM 66.2 °F 60.8 °F 83% 29.53 in 7.0 mi Calm Calm - 0.01 in Rain Rain
4:55 AM 64.4 °F 60.8 °F 88% 29.51 in 10.0 mi Calm Calm - 0.02 in Rain Light Rain
5:15 AM 64.4 °F 60.8 °F 88% 29.50 in 10.0 mi Calm Calm - N/A   Mostly Cloudy
5:34 AM 64.4 °F 60.8 °F 88% 29.49 in 10.0 mi ESE 4.6 mph - N/A   Mostly Cloudy
5:55 AM 64.4 °F 60.8 °F 88% 29.48 in 10.0 mi ESE 4.6 mph - N/A   Mostly Cloudy
6:15 AM 64.4 °F 60.8 °F 88% 29.47 in 10.0 mi ESE 4.6 mph - N/A   Mostly Cloudy
6:35 AM 66.2 °F 60.8 °F 83% 29.46 in 10.0 mi ESE 6.9 mph - N/A   Mostly Cloudy
6:55 AM 66.2 °F 57.2 °F 73% 29.47 in 10.0 mi ESE 5.8 mph - N/A   Overcast
7:15 AM 68.0 °F 57.2 °F 68% 29.46 in 10.0 mi ESE 4.6 mph - N/A   Mostly Cloudy
7:35 AM 69.8 °F 55.4 °F 60% 29.45 in 10.0 mi SE 9.2 mph - N/A   Scattered Clouds
7:54 AM 62.6 °F 59.0 °F 88% 29.59 in 2.0 mi WSW 25.3 mph 40.3 mph 0.34 in Rain , Thunderstorm Heavy Thunderstorms and Rain
8:15 AM 62.6 °F 60.8 °F 94% 29.48 in 10.0 mi East 6.9 mph - 0.05 in Rain , Thunderstorm Light Thunderstorms and Rain
8:35 AM 62.6 °F 60.8 °F 94% 29.48 in 7.0 mi East 5.8 mph - 0.05 in   Scattered Clouds
8:54 AM 62.6 °F 60.8 °F 94% 29.45 in 10.0 mi East 6.9 mph - 0.05 in   Scattered Clouds
9:15 AM 62.6 °F 60.8 °F 94% 29.46 in 10.0 mi SE 6.9 mph - N/A   Mostly Cloudy
9:35 AM 64.4 °F 60.8 °F 88% 29.49 in 10.0 mi NW 5.8 mph - N/A   Mostly Cloudy
9:55 AM 62.6 °F 60.8 °F 94% 29.46 in 10.0 mi East 4.6 mph - N/A   Mostly Cloudy
10:15 AM 62.6 °F 60.8 °F 94% 29.45 in 10.0 mi NE 3.5 mph - N/A   Overcast
10:35 AM 64.4 °F 60.8 °F 88% 29.44 in 10.0 mi East 3.5 mph - N/A Rain Light Rain
10:54 AM 64.4 °F 60.8 °F 88% 29.44 in 10.0 mi East 4.6 mph - 0.01 in Thunderstorm Mostly Cloudy
11:15 AM 64.4 °F 60.8 °F 88% 29.45 in 7.0 mi NW 4.6 mph - N/A Rain , Thunderstorm Light Thunderstorms and Rain
11:34 AM 64.4 °F 60.8 °F 88% 29.43 in 10.0 mi ENE 6.9 mph - N/A Rain Light Rain
11:55 AM 64.4 °F 60.8 °F 88% 29.43 in 7.0 mi Calm Calm - 0.11 in Rain , Thunderstorm Rain
12:15 PM 64.4 °F 62.6 °F 94% 29.42 in 7.0 mi Calm Calm - 0.01 in Rain Light Rain
12:34 PM 64.4 °F 62.6 °F 94% 29.42 in 2.5 mi Calm Calm - 0.01 in Rain Light Rain
12:55 PM 64.4 °F 62.6 °F 94% 29.41 in 4.0 mi Calm Calm - 0.02 in Rain Light Rain
1:15 PM 64.4 °F 62.6 °F 94% 29.40 in 5.0 mi East 6.9 mph - 0.01 in Rain Light Rain
1:35 PM 66.2 °F 64.4 °F 94% 29.37 in 7.0 mi SE 11.5 mph 16.1 mph 0.02 in   Mostly Cloudy
1:54 PM 68.0 °F 64.4 °F 88% 29.34 in 10.0 mi SE 9.2 mph - 0.02 in   Scattered Clouds
2:15 PM 71.6 °F 64.4 °F 78% 29.32 in 10.0 mi SE 9.2 mph - N/A Thunderstorm Clear
2:34 PM 69.8 °F 64.4 °F 83% 29.30 in 10.0 mi SE 10.4 mph - N/A Thunderstorm Thunderstorm
2:54 PM 73.4 °F 62.6 °F 69% 29.29 in 10.0 mi South 10.4 mph 20.7 mph N/A Thunderstorm Scattered Clouds
3:13 PM 66.2 °F 62.6 °F 88% 29.34 in 4.0 mi WNW 18.4 mph 31.1 mph 0.14 in Rain , Thunderstorm Heavy Thunderstorms and Rain
3:35 PM 64.4 °F 62.6 °F 94% 29.35 in 7.0 mi WNW 9.2 mph - 0.29 in Rain , Thunderstorm Heavy Thunderstorms and Rain
3:55 PM 62.6 °F 62.6 °F 100% 29.38 in 7.0 mi WNW 4.6 mph - 0.34 in Rain , Thunderstorm Thunderstorms and Rain
4:15 PM 62.6 °F 62.6 °F 100% 29.39 in 7.0 mi West 11.5 mph - 0.01 in Rain , Thunderstorm Light Thunderstorms and Rain
4:34 PM 62.6 °F 62.6 °F 100% 29.39 in 7.0 mi WNW 12.7 mph 18.4 mph 0.01 in   Light Drizzle
4:55 PM 62.6 °F 60.8 °F 94% 29.41 in 10.0 mi WNW 10.4 mph - 0.01 in Rain Light Rain
5:15 PM 60.8 °F 59.0 °F 94% 29.42 in 10.0 mi WNW 10.4 mph 17.3 mph 0.02 in Rain Light Rain
5:34 PM 60.8 °F 57.2 °F 88% 29.43 in 10.0 mi NW 9.2 mph 16.1 mph 0.02 in   Overcast
5:55 PM 60.8 °F 57.2 °F 88% 29.45 in 10.0 mi NW 12.7 mph 21.9 mph 0.05 in Rain Light Rain
6:15 PM 60.8 °F 57.2 °F 88% 29.47 in 10.0 mi WNW 12.7 mph 18.4 mph N/A   Overcast
6:34 PM 60.8 °F 57.2 °F 88% 29.48 in 10.0 mi WNW 12.7 mph 19.6 mph N/A   Overcast
6:55 PM 59.0 °F 55.4 °F 88% 29.50 in 10.0 mi NW 6.9 mph 17.3 mph N/A   Overcast
7:15 PM 59.0 °F 55.4 °F 88% 29.52 in 10.0 mi WNW 11.5 mph - N/A   Overcast
7:34 PM 59.0 °F 55.4 °F 88% 29.54 in 10.0 mi WNW 6.9 mph - N/A   Overcast
7:55 PM 59.0 °F 55.4 °F 88% 29.54 in 10.0 mi NW 5.8 mph - N/A   Overcast
8:14 PM 59.0 °F 55.4 °F 88% 29.57 in 10.0 mi NW 6.9 mph - N/A   Overcast
8:35 PM 59.0 °F 55.4 °F 88% 29.58 in 10.0 mi WNW 4.6 mph - N/A   Overcast
8:55 PM 59.0 °F 53.6 °F 82% 29.60 in 10.0 mi WNW 6.9 mph - N/A   Overcast
9:14 PM 59.0 °F 53.6 °F 82% 29.61 in 10.0 mi WNW 8.1 mph - N/A   Overcast
9:35 PM 59.0 °F 53.6 °F 82% 29.62 in 10.0 mi NW 6.9 mph - N/A   Overcast
9:55 PM 57.2 °F 51.8 °F 82% 29.63 in 10.0 mi NW 3.5 mph - N/A   Scattered Clouds
10:14 PM 57.2 °F 51.8 °F 82% 29.65 in 10.0 mi WNW 3.5 mph - N/A   Clear
10:35 PM 57.2 °F 53.6 °F 88% 29.67 in 10.0 mi West 5.8 mph - N/A   Mostly Cloudy
10:55 PM 57.2 °F 53.6 °F 88% 29.69 in 10.0 mi West 8.1 mph - N/A   Overcast
11:14 PM 57.2 °F 53.6 °F 88% 29.70 in 10.0 mi WNW 8.1 mph - N/A   Mostly Cloudy
11:35 PM 55.4 °F 53.6 °F 94% 29.70 in 10.0 mi West 4.6 mph - N/A   Scattered Clouds
11:55 PM 55.4 °F 51.8 °F 88% 29.70 in 10.0 mi Calm Calm - N/A   Clear